[[{"header":{"parameterUnit":"m.s-1","parameterCategory":1,"la1":30.2991,"la2":30.254,"lo1":-89.0895,"lo2":-89.0444,"dy":0.0017,"dx":0.0017,"nx":28,"ny":28,"refTime":"2024-12-12T03:00:00:Z","depth":0,"parameterNumber":2,"parameterNumberName":"U-component_of_WINDS"},"data":[0,0,0,0,0,0,0,0,0,0,0,0,0,0,0,0,0,0,0,0,0,0,0,0,0,0,0,0,0,0,0,0,0,0,0,0,0,0,0,0,0,0,0,0,0,0,0,0,0,0,0,0,0,0,0,0,0,0,-4.9268,-4.9268,0,-4.9246,-4.9246,-4.9245,-4.9106,-4.9102,-4.9099,-4.9096,-4.9075,-4.9078,-4.908,0,0,0,0,0,0,0,0,0,0,0,0,0,-4.9193,-4.9195,-4.9268,-4.9268,-4.9268,-4.9246,-4.9246,-4.9245,-4.9106,-4.9102,-4.9098,-4.9094,-4.9074,-4.9077,-4.908,0,0,0,0,0,0,0,0,0,0,0,0,0,-4.9204,-4.9196,-4.9269,-4.9196,-4.9189,-4.9246,-4.9246,-4.9245,-4.9107,-4.9102,-4.9097,-4.9092,-4.9073,-4.9077,-4.9081,-4.9207,0,0,-4.9093,-4.9094,0,0,0,0,0,0,0,0,-4.9204,-4.9207,-4.9207,-4.9201,-4.9193,-4.9173,-4.9211,-4.9232,-4.9108,-4.9138,-4.9095,-4.909,-4.9112,-4.9112,-4.9119,-4.9206,-4.9205,-4.9093,-4.9096,-4.9097,-4.9098,0,0,0,0,0,0,0,-4.9203,-4.9207,-4.9259,-4.9207,-4.9199,-4.9165,-4.9161,-4.9215,-4.9154,-4.9135,-4.9125,-4.9124,-4.9107,-4.9116,-4.9118,-4.9205,-4.9093,-4.9097,-4.9099,-4.91,-4.9394,-4.94,0,0,0,0,0,0,-4.9212,-4.9207,-4.926,-4.9259,-4.9186,-4.9171,-4.9166,-4.9185,-4.9153,-4.9143,-4.9129,-4.9118,-4.9112,-4.9114,-4.9117,-4.9263,-4.9097,-4.9101,-4.9103,-4.9389,-4.9396,-4.9401,0,0,0,0,0,0,-4.9211,-4.9218,-4.9261,-4.923,-4.9233,-4.9177,-4.92,-4.9187,-4.9195,-4.9148,-4.9137,-4.9148,-4.9108,-4.9111,-4.9185,-4.926,-4.9103,-4.9106,-4.9383,-4.9391,-4.9399,-4.9557,0,0,0,0,0,0,-4.921,-4.9219,-4.9265,-4.9232,-4.9235,-4.933,-4.9204,-4.919,-4.9202,-4.9188,-4.9164,-4.9155,-4.9104,-4.918,-4.9189,-4.9263,-4.9109,-4.9376,-4.9386,-4.9396,-4.9544,-4.9569,-4.959,0,0,0,0,0,-4.9207,-4.9311,-4.9268,-4.9276,-4.9293,-4.9335,-4.9336,-4.9276,-4.9209,-4.9256,-4.9225,-4.9155,-4.925,-4.9189,-4.9198,-4.9274,-4.9371,-4.9383,-4.9395,-4.9534,-4.9564,-4.959,0,0,0,0,0,0,-4.9355,-4.9305,-4.9258,-4.9354,-4.935,-4.9311,-4.9368,-4.9309,-4.9324,-4.9311,-4.9235,-4.9231,-4.9317,-4.9302,-4.9235,-4.9395,-4.9299,-4.9313,-4.9401,-4.9429,-4.9452,-4.9454,-4.9112,0,0,0,0,0,-4.9399,-4.9436,-4.9391,-4.948,-4.948,-4.9425,-4.9441,-4.9395,-4.9388,-4.9385,-4.936,-4.9357,-4.9385,-4.9406,-4.943,-4.9541,-4.9535,-4.9598,-4.9621,-4.964,-4.9654,-4.9713,-4.9741,-4.9442,-4.9442,-4.9441,0,0,-4.9489,-4.9467,-4.9495,-4.9509,-4.95,-4.9542,-4.9425,-4.9473,-4.9504,-4.9393,-4.9462,-4.9443,-4.9434,-4.9528,-4.9568,-4.9519,-4.9735,-4.9655,-4.9671,-4.9675,-4.9728,-4.9757,-4.9782,-4.945,-4.9449,-4.9447,0,0,-4.9676,-4.9662,-4.9736,-4.9729,-4.9717,-4.968,-4.9698,-4.9668,-4.9652,-4.9719,-4.9637,-4.9673,-4.9724,-4.9721,-4.9727,-4.9914,-4.985,-4.9924,-5.0044,-5.0102,-5.0126,-5.0146,-5.0214,-5.024,-4.9937,-4.9938,-4.9938,0,-4.9791,-4.9849,-4.9781,-4.9836,-4.9845,-4.9745,-4.982,-4.9817,-4.9814,-4.9823,-4.9767,-4.983,-4.9817,-4.9909,-4.9955,-4.9962,-4.9981,-4.9927,-5.0128,-5.0148,-5.0166,-5.023,-5.0256,-4.9947,-4.9946,-4.9945,-4.9944,0,-4.9992,-5.0034,-5.0094,-5.0094,-5.0109,-5.0174,-5.0116,-5.014,-5.0093,-5.0062,-5.0133,-5.0113,-5.0132,-5.015,-5.0104,-5.0237,-5.0207,-5.0141,-5.0043,-5.0205,-5.0264,-5.0287,-4.996,-4.9957,-4.9954,-4.9952,0,0,-5.0272,-5.0232,-5.0256,-5.0255,-5.0234,-5.0266,-5.0326,-5.0344,-5.0367,-5.0368,-5.0418,-5.0464,-5.0403,-5.0409,-5.0362,-5.0413,-5.0564,-5.034,-5.0339,-5.0384,-5.071,-5.0762,-5.0791,-5.0521,-5.0525,-5.0529,-5.0712,0,-5.0452,-5.0552,-5.0492,-5.0602,-5.064,-5.0547,-5.0599,-5.0593,-5.0566,-5.0596,-5.0565,-5.06,-5.0516,-5.0519,-5.0565,-5.0536,-5.0629,-5.0522,-5.0568,-5.0571,-5.0575,-5.0821,-5.0875,-5.1049,-5.0734,-5.0738,-5.0741,0,-5.0676,-5.0687,-5.08,-5.0773,-5.0787,-5.0835,-5.0847,-5.0876,-5.0868,-5.0844,-5.0852,-5.0792,-5.085,-5.0753,-5.0833,-5.0762,-5.0777,-5.0766,-5.0771,-5.0774,-5.0667,-5.0833,-5.1102,-5.1129,-5.0776,-5.0773,-5.0771,0,-5.0871,-5.0913,-5.0987,-5.0989,-5.0958,-5.0995,-5.0984,-5.097,-5.0985,-5.0996,-5.1005,-5.1023,-5.1033,-5.1049,-5.0996,-5.093,-5.1084,-5.0981,-5.1067,-5.1069,-5.1105,-5.1104,-5.1383,-5.1113,-5.1113,-5.1112,-5.1112,0,-5.1079,-5.1153,-5.1074,-5.112,-5.12,-5.113,-5.1212,-5.1191,-5.118,-5.122,-5.114,-5.118,-5.1107,-5.114,-5.1099,-5.1172,-5.1177,-5.1161,-5.115,-5.1169,-5.1172,-5.1179,-5.1167,-5.1119,-5.1117,-5.1116,-5.1115,0,-5.1311,-5.1261,-5.1335,-5.13,-5.1293,-5.1354,-5.1325,-5.1366,-5.1333,-5.1386,-5.1394,-5.1343,-5.1378,-5.1326,-5.1355,-5.1327,-5.1429,-5.1399,-5.1432,-5.1424,-5.1513,-5.1506,-5.1808,-5.1845,-5.1551,-5.1554,-5.1556,0,-5.1448,-5.1502,-5.1473,-5.1494,-5.1488,-5.1523,-5.1538,-5.1472,-5.1491,-5.1486,-5.1529,-5.1556,-5.1575,-5.1635,-5.1601,-5.1624,-5.1594,-5.1698,-5.1597,-5.1615,-5.1597,-5.1595,-5.1601,-5.1719,-5.1723,-5.1726,-5.1728,0,-5.1697,-5.167,-5.1693,-5.171,-5.1729,-5.1739,-5.1743,-5.1765,-5.1696,-5.1721,-5.1755,-5.177,-5.18,-5.1829,-5.1843,-5.1832,-5.177,-5.176,-5.1781,-5.1803,-5.1821,-5.1814,-5.1491,-5.1754,-5.1751,-5.1749,-5.1748,-5.1747,-5.1886,-5.1931,-5.1918,-5.1947,-5.1943,-5.1949,-5.1986,-5.1958,-5.1985,-5.2003,-5.1963,-5.2008,-5.1998,-5.201,-5.2007,-5.2042,-5.1996,-5.2027,-5.2035,-5.2044,-5.2058,-5.1814,-5.2044,-5.2043,-5.2042,-5.2041,-5.2041,0,-5.2133,-5.2119,-5.2147,-5.2155,-5.2179,-5.2116,-5.2117,-5.2142,-5.2182,-5.2178,-5.2199,-5.2239,-5.2267,-5.2235,-5.2258,-5.2292,-5.2264,-5.23,-5.2298,-5.2297,-5.2097,-5.2077,-5.2323,-5.2322,-5.2322,-5.2322,-5.2322,-5.2322,-5.2264,-5.2336,-5.2307,-5.2377,-5.2363,-5.2406,-5.2412,-5.2417,-5.2414,-5.2462,-5.2485,-5.2464,-5.2449,-5.247,-5.2494,-5.2484,-5.2497,-5.2544,-5.2524,-5.2338,-5.2311,-5.2284,-5.2265,-5.2547,-5.2547,-5.2721,-5.2723,-5.2724]},{"header":{"parameterUnit":"m.s-1","parameterCategory":1,"la1":30.2991,"la2":30.254,"lo1":-89.0895,"lo2":-89.0444,"dy":0.0017,"dx":0.0017,"nx":28,"ny":28,"refTime":"2024-12-12T03:00:00:Z","depth":0,"parameterNumber":3,"parameterNumberName":"V-component_of_WINDS"},"data":[0,0,0,0,0,0,0,0,0,0,0,0,0,0,0,0,0,0,0,0,0,0,0,0,0,0,0,0,0,0,0,0,0,0,0,0,0,0,0,0,0,0,0,0,0,0,0,0,0,0,0,0,0,0,0,0,0,0,-1.8304,-1.8305,0,-1.835,-1.835,-1.8351,-1.8326,-1.8325,-1.8323,-1.8322,-1.837,-1.8372,-1.8375,0,0,0,0,0,0,0,0,0,0,0,0,0,-1.8195,-1.8197,-1.8304,-1.8305,-1.8305,-1.835,-1.835,-1.8351,-1.8326,-1.8325,-1.8323,-1.8322,-1.8369,-1.8372,-1.8375,0,0,0,0,0,0,0,0,0,0,0,0,0,-1.8242,-1.8198,-1.8304,-1.8298,-1.8298,-1.835,-1.835,-1.8351,-1.8326,-1.8324,-1.8323,-1.8321,-1.8368,-1.8372,-1.8375,-1.8435,0,0,-1.8386,-1.8388,0,0,0,0,0,0,0,0,-1.8239,-1.8246,-1.8298,-1.8299,-1.8299,-1.833,-1.8329,-1.8379,-1.8327,-1.8316,-1.8322,-1.832,-1.8358,-1.8363,-1.8375,-1.8438,-1.844,-1.8387,-1.8389,-1.839,-1.8391,0,0,0,0,0,0,0,-1.8236,-1.8244,-1.8322,-1.8299,-1.8299,-1.8293,-1.8298,-1.8339,-1.8347,-1.8316,-1.8315,-1.832,-1.8358,-1.8372,-1.8376,-1.844,-1.8387,-1.839,-1.8392,-1.8393,-1.8554,-1.8556,0,0,0,0,0,0,-1.8233,-1.8241,-1.8321,-1.8324,-1.8264,-1.8297,-1.8302,-1.8322,-1.8346,-1.8348,-1.8322,-1.8319,-1.8366,-1.8372,-1.8378,-1.845,-1.839,-1.8394,-1.8396,-1.8552,-1.8554,-1.8557,0,0,0,0,0,0,-1.8231,-1.824,-1.8319,-1.8282,-1.8291,-1.83,-1.8323,-1.8324,-1.8338,-1.8351,-1.8352,-1.8335,-1.8365,-1.8373,-1.8421,-1.8451,-1.8395,-1.8399,-1.8549,-1.8553,-1.8556,-1.8595,0,0,0,0,0,0,-1.8228,-1.824,-1.8263,-1.8283,-1.8293,-1.8362,-1.8325,-1.8326,-1.8344,-1.8341,-1.8363,-1.8365,-1.8364,-1.8416,-1.8425,-1.8455,-1.8402,-1.8547,-1.8551,-1.8555,-1.8591,-1.8599,-1.8606,0,0,0,0,0,-1.8224,-1.8272,-1.8264,-1.8274,-1.8323,-1.8363,-1.837,-1.8368,-1.8347,-1.837,-1.8378,-1.8364,-1.8446,-1.8421,-1.8431,-1.8463,-1.8545,-1.855,-1.8554,-1.8588,-1.8598,-1.8606,0,0,0,0,0,0,-1.8256,-1.8275,-1.8266,-1.8322,-1.8341,-1.8359,-1.8389,-1.8378,-1.8404,-1.84,-1.8397,-1.8402,-1.8453,-1.8462,-1.8434,-1.8522,-1.8492,-1.8499,-1.8514,-1.8524,-1.8531,-1.8528,-1.8405,0,0,0,0,0,-1.827,-1.8302,-1.8316,-1.8364,-1.8374,-1.838,-1.8397,-1.8394,-1.8414,-1.8422,-1.8434,-1.8454,-1.8484,-1.8504,-1.8533,-1.8592,-1.8597,-1.8619,-1.8626,-1.8632,-1.8639,-1.8671,-1.8681,-1.8572,-1.8572,-1.8572,0,0,-1.8299,-1.8312,-1.8333,-1.8371,-1.8385,-1.8418,-1.8387,-1.8423,-1.8447,-1.8428,-1.8475,-1.8484,-1.8505,-1.856,-1.8584,-1.8569,-1.8669,-1.8638,-1.8643,-1.8646,-1.8677,-1.8687,-1.8696,-1.8575,-1.8575,-1.8574,0,0,-1.8368,-1.8381,-1.8423,-1.8438,-1.846,-1.8463,-1.8473,-1.8492,-1.8498,-1.8544,-1.853,-1.8559,-1.8611,-1.8627,-1.8642,-1.8716,-1.8705,-1.8726,-1.8765,-1.8797,-1.8805,-1.8813,-1.884,-1.885,-1.8732,-1.8732,-1.8732,0,-1.8401,-1.845,-1.8446,-1.8483,-1.85,-1.8483,-1.8525,-1.854,-1.8571,-1.8583,-1.8566,-1.8631,-1.8644,-1.8702,-1.872,-1.8732,-1.8744,-1.8724,-1.8804,-1.8812,-1.8819,-1.8845,-1.8855,-1.8734,-1.8734,-1.8734,-1.8734,0,-1.849,-1.8524,-1.8555,-1.8584,-1.8605,-1.8644,-1.8646,-1.8667,-1.8662,-1.8667,-1.8714,-1.873,-1.8761,-1.8774,-1.8769,-1.8831,-1.8821,-1.8804,-1.8774,-1.8832,-1.8856,-1.8866,-1.8738,-1.8737,-1.8736,-1.8736,0,0,-1.8582,-1.8608,-1.862,-1.8633,-1.8655,-1.8682,-1.872,-1.875,-1.8769,-1.879,-1.8822,-1.8866,-1.885,-1.8868,-1.8864,-1.8891,-1.895,-1.8871,-1.8871,-1.8886,-1.9019,-1.9033,-1.9045,-1.8941,-1.8943,-1.8945,-1.9018,0,-1.8654,-1.8721,-1.8718,-1.8781,-1.8813,-1.8796,-1.883,-1.8847,-1.8852,-1.888,-1.8885,-1.8917,-1.8893,-1.8903,-1.893,-1.8937,-1.8977,-1.8932,-1.8973,-1.8974,-1.8969,-1.9057,-1.9072,-1.914,-1.9027,-1.9029,-1.903,0,-1.8747,-1.8771,-1.8837,-1.8854,-1.8867,-1.8898,-1.8925,-1.8951,-1.897,-1.8972,-1.8991,-1.8983,-1.9022,-1.8989,-1.9043,-1.9013,-1.9029,-1.9035,-1.9037,-1.9042,-1.9007,-1.9066,-1.9162,-1.9173,-1.9045,-1.9044,-1.9043,0,-1.8809,-1.8857,-1.8903,-1.8915,-1.8936,-1.8958,-1.8968,-1.8985,-1.9003,-1.9027,-1.9039,-1.9066,-1.9082,-1.9104,-1.9104,-1.908,-1.9158,-1.9126,-1.9161,-1.9162,-1.918,-1.9179,-1.9282,-1.9188,-1.9188,-1.9188,-1.9188,0,-1.8889,-1.8931,-1.8931,-1.896,-1.9006,-1.9001,-1.9047,-1.9054,-1.9069,-1.9099,-1.9086,-1.9114,-1.9111,-1.914,-1.9139,-1.9184,-1.9191,-1.9194,-1.9194,-1.9196,-1.9196,-1.9208,-1.9204,-1.9191,-1.919,-1.919,-1.9189,0,-1.8967,-1.8969,-1.9018,-1.9034,-1.9039,-1.9072,-1.9086,-1.9112,-1.9116,-1.9154,-1.9162,-1.9168,-1.92,-1.9202,-1.9239,-1.9239,-1.9294,-1.9288,-1.9288,-1.9287,-1.9323,-1.932,-1.9438,-1.9453,-1.9349,-1.935,-1.9351,0,-1.9019,-1.9051,-1.907,-1.9089,-1.91,-1.913,-1.9148,-1.9145,-1.9165,-1.9188,-1.9212,-1.9244,-1.9269,-1.9321,-1.9329,-1.9357,-1.9353,-1.9392,-1.9357,-1.9358,-1.9355,-1.9353,-1.9357,-1.9399,-1.94,-1.9401,-1.9402,0,-1.9112,-1.9111,-1.9138,-1.9166,-1.9188,-1.9209,-1.9229,-1.9245,-1.9243,-1.9266,-1.9299,-1.9318,-1.9356,-1.9388,-1.9415,-1.9425,-1.9414,-1.9413,-1.9423,-1.9426,-1.9425,-1.9427,-1.9308,-1.941,-1.941,-1.9409,-1.9409,-1.9408,-1.9179,-1.9207,-1.9224,-1.9255,-1.9269,-1.9287,-1.9313,-1.932,-1.9347,-1.9378,-1.9374,-1.941,-1.9428,-1.9464,-1.9476,-1.9505,-1.9492,-1.9506,-1.951,-1.9514,-1.9518,-1.9419,-1.951,-1.951,-1.9509,-1.9509,-1.9509,0,-1.9272,-1.9282,-1.931,-1.9338,-1.9362,-1.9348,-1.9369,-1.939,-1.9422,-1.944,-1.9464,-1.9502,-1.9532,-1.9542,-1.9571,-1.9592,-1.9587,-1.96,-1.9599,-1.9602,-1.9528,-1.9517,-1.9603,-1.9603,-1.9603,-1.9603,-1.9603,-1.9603,-1.9323,-1.9369,-1.937,-1.9422,-1.9432,-1.9468,-1.9481,-1.9498,-1.9512,-1.9555,-1.9579,-1.9585,-1.9599,-1.9629,-1.9656,-1.9658,-1.967,-1.9685,-1.9685,-1.9616,-1.9607,-1.9598,-1.9587,-1.9687,-1.9687,-1.9756,-1.9757,-1.9757]}]]